Weather History for Clintonville, WI

Change the Weather History Date:

Tuesday, January 31, 2012

  Actual Average Record
Temperature  
Mean Temperature 32 °F -  
Max Temperature 44 °F 27 °F 44 °F (2012)
Min Temperature 19 °F 6 °F -15 °F (1959)
Degree Days  
Heating Degree Days 34    
Moisture  
Dew Point 27 °F    
Average Humidity 83    
Maximum Humidity 100    
Minimum Humidity 61    
Precipitation  
Precipitation 0.00 in - - ()
Sea Level Pressure  
Sea Level Pressure 29.67 in    
Wind  
Wind Speed 2 mph (WSW)    
Max Wind Speed 14 mph    
Max Gust Speed 17 mph    
Visibility 7 miles    
Events      
Averages and records for this station are not official NWS values.
T = Trace of Precipitation, MM = Missing Value Source: NWS Daily Summary

Daily Weather History Graph

Daily Weather History Graph

Search for Another Location

Airport:

Trip Planner

Search our weather history database for the weather conditions in past years. The results will help you decide how hot, cold, wet, or windy it might be!

Date:

Astronomy

Jan. 31, 2012 Rise Set
Actual Time 7:15 AM CST 5:01 PM CST
Civil Twilight 6:44 AM CST 5:32 PM CST
Nautical Twilight 6:09 AM CST 6:07 PM CST
Astronomical Twilight 5:35 AM CST 6:42 PM CST
Moon 10:50 AM CST (1/31) 1:04 AM CST (1/31)
Length of Visible Light 10h 48m
Length of Day
9h 46m
First Quarter, 55% of the Moon is Illuminated
Jan 31
First Quarter
Feb 7
Full
Feb 14
Last Quarter
Feb 21
New
Feb 29
First Quarter

Hourly Weather History & Observations

Time (CST) Temp. Windchill Dew Point Humidity Pressure Visibility Wind Dir Wind Speed Gust Speed Precip Events Conditions
12:15 AM 21.2 °F - 21.2 °F 100% 29.73 in 5.0 mi Calm Calm - N/A   Clear
12:35 AM 21.2 °F - 21.2 °F 100% 29.72 in 5.0 mi Calm Calm - N/A   Clear
12:55 AM 19.4 °F - 19.4 °F 100% 29.72 in 4.0 mi Calm Calm - N/A   Clear
1:15 AM 19.4 °F - 19.4 °F 100% 29.71 in 5.0 mi Calm Calm - N/A   Clear
1:35 AM 21.2 °F - 21.2 °F 100% 29.71 in 5.0 mi Calm Calm - N/A   Clear
1:55 AM 21.2 °F 16.4 °F 19.4 °F 93% 29.71 in 5.0 mi NNE 3.5 mph - N/A   Clear
2:15 AM 21.2 °F - 19.4 °F 93% 29.72 in 5.0 mi Calm Calm - N/A   Clear
2:35 AM 19.4 °F - 19.4 °F 100% 29.72 in 5.0 mi Calm Calm - N/A   Clear
2:55 AM 19.4 °F 14.3 °F 19.4 °F 100% 29.71 in 5.0 mi NNE 3.5 mph - N/A   Clear
3:15 AM 21.2 °F 14.9 °F 19.4 °F 93% 29.70 in 5.0 mi NE 4.6 mph - N/A   Clear
3:35 AM 21.2 °F - 21.2 °F 100% 29.70 in 5.0 mi Calm Calm - N/A   Clear
3:55 AM 21.2 °F - 21.2 °F 100% 29.70 in 5.0 mi Calm Calm - N/A   Clear
4:15 AM 21.2 °F - 21.2 °F 100% 29.69 in 5.0 mi Calm Calm - N/A   Clear
4:35 AM 21.2 °F - 19.4 °F 93% 29.69 in 4.0 mi Calm Calm - N/A   Clear
4:55 AM 21.2 °F - 19.4 °F 93% 29.68 in 4.0 mi Calm Calm - N/A   Clear
5:15 AM 21.2 °F - 19.4 °F 93% 29.67 in 4.0 mi Calm Calm - N/A   Clear
5:35 AM 19.4 °F - 19.4 °F 100% 29.66 in 5.0 mi Calm Calm - N/A   Clear
6:15 AM 19.4 °F - 19.4 °F 100% 29.66 in 4.0 mi Calm Calm - N/A   Clear
6:35 AM 21.2 °F - 19.4 °F 93% 29.66 in 5.0 mi Calm Calm - N/A   Clear
6:55 AM 21.2 °F - 21.2 °F 100% 29.66 in 5.0 mi Calm Calm - N/A   Clear
7:15 AM 23.0 °F - 21.2 °F 93% 29.64 in 4.0 mi Calm Calm - N/A   Clear
7:35 AM 23.0 °F - 21.2 °F 93% 29.65 in 4.0 mi Calm Calm - N/A   Clear
8:15 AM 23.0 °F - 23.0 °F 100% 29.64 in 4.0 mi Calm Calm - N/A   Clear
8:35 AM 24.8 °F - 23.0 °F 93% 29.64 in 4.0 mi Calm Calm - N/A   Clear
9:15 AM 26.6 °F - 24.8 °F 93% 29.63 in 4.0 mi Calm Calm - N/A   Clear
9:35 AM 28.4 °F - 26.6 °F 93% 29.63 in 5.0 mi Calm Calm - N/A   Clear
9:55 AM 30.2 °F - 26.6 °F 86% 29.63 in 5.0 mi Calm Calm - N/A   Clear
10:15 AM 30.2 °F - 28.4 °F 93% 29.63 in 5.0 mi Calm Calm - N/A   Clear
10:35 AM 32.0 °F - 28.4 °F 87% 29.63 in 7.0 mi Calm Calm - N/A   Clear
10:55 AM 33.8 °F - 30.2 °F 87% 29.63 in 7.0 mi Calm Calm - N/A   Clear
11:15 AM 37.4 °F 32.8 °F 32.0 °F 81% 29.63 in 10.0 mi SW 5.8 mph - N/A   Clear
11:35 AM 39.2 °F 35.9 °F 32.0 °F 75% 29.62 in 10.0 mi WSW 4.6 mph - N/A   Clear
11:55 AM 41.0 °F 37.1 °F 33.8 °F 76% 29.61 in 10.0 mi SW 5.8 mph - N/A   Clear
12:15 PM 41.0 °F 38.0 °F 33.8 °F 76% 29.61 in 10.0 mi SW 4.6 mph - N/A   Clear
12:35 PM 41.0 °F 37.1 °F 33.8 °F 76% 29.61 in 10.0 mi SW 5.8 mph - N/A   Clear
12:55 PM 42.8 °F 39.3 °F 33.8 °F 70% 29.60 in 10.0 mi WSW 5.8 mph - N/A   Clear
1:35 PM 44.6 °F 39.2 °F 33.8 °F 66% 29.60 in 10.0 mi WSW 10.4 mph - N/A   Clear
1:55 PM 44.6 °F 39.2 °F 33.8 °F 66% 29.61 in 10.0 mi WSW 10.4 mph - N/A   Clear
2:15 PM 44.6 °F 39.7 °F 33.8 °F 66% 29.62 in 10.0 mi WSW 9.2 mph - N/A   Clear
2:35 PM 44.6 °F 40.2 °F 33.8 °F 66% 29.63 in 10.0 mi WSW 8.1 mph - N/A   Clear
2:55 PM 44.6 °F 40.2 °F 32.0 °F 61% 29.63 in 10.0 mi WSW 8.1 mph - N/A   Clear
3:15 PM 44.6 °F 39.7 °F 32.0 °F 61% 29.63 in 10.0 mi WSW 9.2 mph - N/A   Clear
3:35 PM 44.6 °F 40.2 °F 32.0 °F 61% 29.63 in 10.0 mi WSW 8.1 mph - N/A   Clear
3:55 PM 42.8 °F 38.6 °F 32.0 °F 66% 29.64 in 10.0 mi WSW 6.9 mph - N/A   Clear
4:15 PM 44.6 °F 41.4 °F 32.0 °F 61% 29.64 in 10.0 mi WSW 5.8 mph - N/A   Clear
4:35 PM 42.8 °F 38.0 °F 32.0 °F 66% 29.65 in 10.0 mi WSW 8.1 mph - N/A   Clear
4:55 PM 42.8 °F 38.6 °F 32.0 °F 66% 29.65 in 10.0 mi WSW 6.9 mph - N/A   Clear
5:15 PM 42.8 °F 38.6 °F 32.0 °F 66% 29.66 in 10.0 mi WSW 6.9 mph - N/A   Clear
5:35 PM 41.0 °F 35.8 °F 32.0 °F 70% 29.67 in 10.0 mi WSW 8.1 mph - N/A   Clear
5:55 PM 41.0 °F 35.8 °F 32.0 °F 70% 29.68 in 10.0 mi WSW 8.1 mph - N/A   Clear
6:15 PM 41.0 °F 36.4 °F 32.0 °F 70% 29.68 in 10.0 mi WSW 6.9 mph - N/A   Clear
6:35 PM 41.0 °F 36.4 °F 32.0 °F 70% 29.69 in 10.0 mi WSW 6.9 mph - N/A   Clear
6:55 PM 39.2 °F 35.0 °F 32.0 °F 75% 29.70 in 10.0 mi WSW 5.8 mph - N/A   Clear
7:15 PM 39.2 °F 37.0 °F 32.0 °F 75% 29.70 in 10.0 mi West 3.5 mph - N/A   Clear
7:35 PM 39.2 °F 34.2 °F 32.0 °F 75% 29.71 in 10.0 mi West 6.9 mph - N/A   Clear
7:55 PM 39.2 °F 33.0 °F 32.0 °F 75% 29.71 in 10.0 mi West 9.2 mph - N/A   Clear
8:15 PM 39.2 °F 32.5 °F 32.0 °F 75% 29.72 in 10.0 mi West 10.4 mph - N/A   Clear
8:35 PM 41.0 °F 33.5 °F 32.0 °F 70% 29.73 in 10.0 mi West 13.8 mph 17.3 mph N/A   Clear
8:55 PM 39.2 °F 31.6 °F 32.0 °F 75% 29.74 in 10.0 mi West 12.7 mph - N/A   Clear
9:15 PM 39.2 °F 32.0 °F 32.0 °F 75% 29.75 in 10.0 mi West 11.5 mph - N/A   Scattered Clouds
9:35 PM 39.2 °F 32.5 °F 32.0 °F 75% 29.76 in 10.0 mi West 10.4 mph 17.3 mph N/A   Mostly Cloudy
9:55 PM 39.2 °F 32.5 °F 32.0 °F 75% 29.76 in 10.0 mi WNW 10.4 mph - N/A   Overcast
10:15 PM 41.0 °F 34.7 °F 32.0 °F 70% 29.77 in 10.0 mi WNW 10.4 mph 16.1 mph N/A   Overcast
10:35 PM 41.0 °F 33.1 °F 32.0 °F 70% 29.78 in 10.0 mi WNW 15.0 mph 20.7 mph N/A   Overcast
10:55 PM 41.0 °F 33.5 °F 32.0 °F 70% 29.78 in 10.0 mi WNW 13.8 mph 19.6 mph N/A   Overcast
11:15 PM 39.2 °F 30.8 °F 32.0 °F 75% 29.80 in 10.0 mi NW 15.0 mph 20.7 mph N/A   Overcast
11:35 PM 39.2 °F 30.8 °F 32.0 °F 75% 29.81 in 10.0 mi NW 15.0 mph 19.6 mph N/A   Overcast
11:55 PM 37.4 °F 29.3 °F 32.0 °F 81% 29.82 in 10.0 mi WNW 12.7 mph 19.6 mph N/A   Overcast